When you browse on this site, cookies collect data to enhance your experience and personalize the content and advertising you see.
Visit our Privacy Policy to learn more. By continuing to use the site, you agree to this use of cookies and data.
  • In Romania
  • List of Countries
  • For 7 days
  • Water Temperature
  • Weather Map
  • Weather Widgets
  • user-avatar
    Login

    Hourly Weather Solden

    Today, 20 September, Friday

    Time Temperature Precipitation Wind Pressure Humidity
    00:00 +3°C° 0 mm 1 mps 587 mmHg 79%
    01:00 +2°C° 0 mm 0 mps 587 mmHg 77%
    02:00 +1°C° 0 mm 0 mps 587 mmHg 76%
    03:00 +2°C° 0 mm 1 mps 587 mmHg 75%
    04:00 +2°C° 0 mm 1 mps 586 mmHg 73%
    05:00 +2°C° 0 mm 1 mps 587 mmHg 72%
    06:00 +2°C° 0 mm 0 mps 587 mmHg 72%
    07:00 +3°C° 0 mm 0 mps 588 mmHg 71%
    08:00 +6°C° 0 mm 1 mps 588 mmHg 64%
    09:00 +7°C° 0 mm 1 mps 589 mmHg 58%
    10:00 +9°C° 0 mm 1 mps 590 mmHg 51%
    11:00 +10°C° 0 mm 1 mps 590 mmHg 50%
    12:00 +11°C° 0 mm 1 mps 590 mmHg 49%
    13:00 +10°C° 0 mm 2 mps 591 mmHg 49%
    14:00 +11°C° 0 mm 1 mps 590 mmHg 52%
    15:00 +11°C° 0 mm 1 mps 590 mmHg 55%
    16:00 +11°C° 0 mm 1 mps 590 mmHg 59%
    17:00 +8°C° 0 mm 1 mps 589 mmHg 69%
    18:00 +6°C° 0 mm 1 mps 588 mmHg 80%
    19:00 +3°C° 0 mm 0 mps 587 mmHg 91%
    20:00 +2°C° 0 mm 0 mps 586 mmHg 91%
    21:00 +2°C° 0 mm 0 mps 586 mmHg 92%
    22:00 +1°C° 0 mm 0 mps 586 mmHg 92%
    23:00 +1°C° 0 mm 0 mps 586 mmHg 93%

    Tomorrow, 21 September, Saturday

    Time Temperature Precipitation Wind Pressure Humidity
    00:00 +1°C° 0 mm 0 mps 586 mmHg 93%
    01:00 +1°C° 0 mm 0 mps 586 mmHg 93%
    02:00 +1°C° 0 mm 0 mps 586 mmHg 93%
    03:00 +1°C° 0 mm 0 mps 585 mmHg 93%
    04:00 +1°C° 0 mm 0 mps 585 mmHg 93%
    05:00 +2°C° 0 mm 0 mps 585 mmHg 91%
    06:00 +2°C° 0 mm 0 mps 586 mmHg 90%
    07:00 +3°C° 0 mm 0 mps 586 mmHg 88%
    08:00 +6°C° 0 mm 1 mps 587 mmHg 80%
    09:00 +8°C° 0 mm 1 mps 588 mmHg 72%
    10:00 +10°C° 0 mm 1 mps 589 mmHg 63%
    11:00 +11°C° 0 mm 1 mps 589 mmHg 60%
    12:00 +12°C° 0 mm 2 mps 589 mmHg 57%
    13:00 +12°C° 0 mm 2 mps 589 mmHg 54%
    14:00 +12°C° 0 mm 2 mps 589 mmHg 56%
    15:00 +12°C° 0 mm 2 mps 588 mmHg 58%
    16:00 +10°C° 0 mm 2 mps 588 mmHg 61%
    17:00 +8°C° 0 mm 2 mps 587 mmHg 71%
    18:00 +7°C° 0 mm 1 mps 586 mmHg 82%
    19:00 +4°C° 0 mm 1 mps 585 mmHg 92%
    20:00 +4°C° 0 mm 1 mps 585 mmHg 93%
    21:00 +4°C° 0 mm 1 mps 585 mmHg 94%
    22:00 +3°C° 0 mm 1 mps 585 mmHg 95%
    23:00 +3°C° 0 mm 1 mps 584 mmHg 94%

    Day after tomorrow, 22 September, Sunday

    Time Temperature Precipitation Wind Pressure Humidity
    00:00 +3°C° 0 mm 1 mps 584 mmHg 93%
    01:00 +2°C° 0 mm 1 mps 583 mmHg 92%
    02:00 +2°C° 0 mm 1 mps 583 mmHg 91%
    03:00 +2°C° 0 mm 1 mps 583 mmHg 91%
    04:00 +2°C° 0 mm 1 mps 583 mmHg 90%
    05:00 +3°C° 0 mm 1 mps 583 mmHg 90%
    06:00 +3°C° 0 mm 1 mps 583 mmHg 89%
    07:00 +4°C° 0 mm 1 mps 583 mmHg 88%
    08:00 +6°C° 0 mm 1 mps 584 mmHg 81%
    09:00 +8°C° 0 mm 1 mps 585 mmHg 73%
    10:00 +10°C° 0 mm 1 mps 586 mmHg 66%
    11:00 +10°C° 0 mm 2 mps 586 mmHg 65%
    12:00 +10°C° 0 mm 2 mps 586 mmHg 65%
    13:00 +12°C° 0 mm 2 mps 586 mmHg 64%
    14:00 +10°C° 0 mm 2 mps 585 mmHg 67%
    15:00 +10°C° 0 mm 2 mps 585 mmHg 71%
    16:00 +9°C° 0 mm 2 mps 584 mmHg 74%
    17:00 +8°C° 0 mm 2 mps 584 mmHg 81%
    18:00 +8°C° 0 mm 1 mps 583 mmHg 87%
    19:00 +6°C° 0 mm 1 mps 583 mmHg 94%
    20:00 +6°C° 0 mm 1 mps 583 mmHg 94%
    21:00 +6°C° 0 mm 1 mps 582 mmHg 95%
    22:00 +6°C° 0 mm 1 mps 582 mmHg 95%
    23:00 +6°C° 0.4 mm 1 mps 582 mmHg 96%

    23 September, Monday

    Time Temperature Precipitation Wind Pressure Humidity
    00:00 +5°C° 0.4 mm 0 mps 582 mmHg 97%
    01:00 +5°C° 0.4 mm 0 mps 582 mmHg 97%
    02:00 +5°C° 0 mm 0 mps 582 mmHg 97%
    03:00 +5°C° 0 mm 0 mps 581 mmHg 97%
    04:00 +5°C° 0 mm 0 mps 581 mmHg 97%
    05:00 +5°C° 0 mm 0 mps 581 mmHg 97%
    06:00 +5°C° 0 mm 0 mps 581 mmHg 97%
    07:00 +5°C° 0 mm 0 mps 581 mmHg 96%
    08:00 +5°C° 0.3 mm 0 mps 582 mmHg 96%
    09:00 +7°C° 0.3 mm 1 mps 582 mmHg 95%
    10:00 +7°C° 0.3 mm 1 mps 582 mmHg 94%
    11:00 +6°C° 2.8 mm 1 mps 582 mmHg 95%
    12:00 +5°C° 2.8 mm 2 mps 582 mmHg 96%
    13:00 +4°C° 2.8 mm 2 mps 581 mmHg 96%
    14:00 +3°C° 4.5 mm 2 mps 580 mmHg 96%
    15:00 +2°C° 4.5 mm 2 mps 580 mmHg 96%
    16:00 +1°C° 4.5 mm 2 mps 579 mmHg 96%
    17:00 +1°C° 0.9 mm 2 mps 579 mmHg 96%
    18:00 -1°C° 0.9 mm 3 mps 579 mmHg 95%
    19:00 -1°C° 0.9 mm 3 mps 579 mmHg 95%
    20:00 -1°C° 0 mm 3 mps 579 mmHg 94%
    21:00 -1°C° 0 mm 3 mps 580 mmHg 94%
    22:00 -1°C° 0 mm 3 mps 580 mmHg 93%
    23:00 -2°C° 0 mm 3 mps 580 mmHg 92%

    24 September, Tuesday

    Time Temperature Precipitation Wind Pressure Humidity
    00:00 -2°C° 0 mm 3 mps 580 mmHg 91%
    01:00 -2°C° 0 mm 3 mps 580 mmHg 90%
    02:00 -3°C° 0 mm 2 mps 579 mmHg 89%
    03:00 -3°C° 0 mm 2 mps 579 mmHg 87%
    04:00 -3°C° 0 mm 2 mps 579 mmHg 85%
    05:00 -3°C° 0 mm 2 mps 579 mmHg 83%
    06:00 -2°C° 0 mm 2 mps 580 mmHg 82%
    07:00 -2°C° 0 mm 2 mps 580 mmHg 80%
    08:00 +2°C° 0 mm 1 mps 581 mmHg 77%
    09:00 +5°C° 0 mm 1 mps 582 mmHg 74%
    10:00 +6°C° 0 mm 0 mps 583 mmHg 71%
    11:00 +8°C° 0 mm 1 mps 583 mmHg 68%
    12:00 +9°C° 0 mm 1 mps 583 mmHg 66%
    13:00 +10°C° 0 mm 1 mps 583 mmHg 63%
    14:00 +9°C° 0 mm 1 mps 583 mmHg 64%
    15:00 +9°C° 0 mm 1 mps 583 mmHg 65%
    16:00 +9°C° 0 mm 1 mps 583 mmHg 66%
    17:00 +7°C° 0 mm 1 mps 582 mmHg 70%
    18:00 +5°C° 0 mm 1 mps 581 mmHg 74%
    19:00 +3°C° 0 mm 1 mps 580 mmHg 78%
    20:00 +3°C° 0 mm 1 mps 580 mmHg 77%
    21:00 +3°C° 0 mm 1 mps 580 mmHg 77%
    22:00 +2°C° 0 mm 1 mps 580 mmHg 76%
    23:00 +2°C° 0 mm 1 mps 580 mmHg 77%

    25 September, Wednesday

    Time Temperature Precipitation Wind Pressure Humidity
    00:00 +2°C° 0 mm 1 mps 579 mmHg 77%
    01:00 +1°C° 0 mm 0 mps 579 mmHg 78%
    02:00 +1°C° 0 mm 0 mps 579 mmHg 78%
    03:00 +2°C° 0 mm 0 mps 579 mmHg 78%
    04:00 +2°C° 0 mm 0 mps 580 mmHg 78%
    05:00 +3°C° 0.1 mm 1 mps 580 mmHg 79%
    06:00 +3°C° 0.1 mm 1 mps 580 mmHg 81%
    07:00 +3°C° 0.1 mm 1 mps 580 mmHg 82%
    08:00 +5°C° 0 mm 1 mps 581 mmHg 78%
    09:00 +6°C° 0 mm 1 mps 581 mmHg 74%
    10:00 +7°C° 0 mm 0 mps 582 mmHg 70%
    11:00 +8°C° 0 mm 1 mps 582 mmHg 69%
    12:00 +9°C° 0 mm 1 mps 582 mmHg 68%
    13:00 +9°C° 0 mm 1 mps 583 mmHg 67%
    14:00 +9°C° 0.3 mm 1 mps 582 mmHg 71%
    15:00 +8°C° 0.3 mm 1 mps 582 mmHg 75%
    16:00 +6°C° 0.3 mm 0 mps 581 mmHg 79%
    17:00 +6°C° 0.5 mm 1 mps 581 mmHg 83%
    18:00 +5°C° 0.5 mm 1 mps 581 mmHg 87%
    19:00 +4°C° 0.5 mm 1 mps 581 mmHg 91%
    20:00 +4°C° 0.2 mm 1 mps 581 mmHg 92%
    21:00 +4°C° 0.2 mm 1 mps 581 mmHg 92%
    22:00 +4°C° 0.2 mm 1 mps 581 mmHg 92%
    23:00 +3°C° 0 mm 1 mps 581 mmHg 92%
    Show more